date,City,No. Stations,Air Quality,Index Value,Prominent Pollutant
2021-03-27,Hassan,1.0,Moderate,144,PM10
2021-03-28,Hassan,1.0,Moderate,172,PM10
2021-03-29,Hassan,1.0,Moderate,129,PM10
2021-03-30,Hassan,1.0,Moderate,130,PM10
2021-03-31,Hassan,1.0,Moderate,132,PM10
2021-04-01,Hassan,1.0,Moderate,137,PM10
2021-04-02,Hassan,1.0,Moderate,102,PM10
2021-04-03,Hassan,1.0,Moderate,150,PM10
2021-04-04,Hassan,1.0,Moderate,151,PM10
2021-04-05,Hassan,1.0,Moderate,127,PM10
2021-04-06,Hassan,1.0,Moderate,135,PM10
2021-04-07,Hassan,1.0,Moderate,132,PM10
2021-04-08,Hassan,1.0,Moderate,130,PM10
2021-04-09,Hassan,1.0,Moderate,116,PM10
2021-04-10,Hassan,1.0,Moderate,114,PM10
2021-04-11,Hassan,1.0,Moderate,119,PM10
2021-04-12,Hassan,1.0,Satisfactory,96,PM10
2021-04-13,Hassan,1.0,Satisfactory,88,PM10
2021-04-14,Hassan,1.0,Satisfactory,60,PM10
2021-04-15,Hassan,1.0,Satisfactory,58,PM10
2021-04-16,Hassan,1.0,Satisfactory,77,PM10
2021-04-17,Hassan,1.0,Satisfactory,86,PM10
2021-04-18,Hassan,1.0,Moderate,108,PM10
2021-04-19,Hassan,1.0,Satisfactory,91,PM10
2021-04-20,Hassan,1.0,Satisfactory,69,PM10
2021-04-21,Hassan,1.0,Satisfactory,99,PM10
2021-04-22,Hassan,1.0,Satisfactory,77,PM10
2021-04-23,Hassan,1.0,Satisfactory,79,PM10
2021-04-24,Hassan,1.0,Satisfactory,75,CO
2021-04-25,Hassan,1.0,Satisfactory,71,PM10
2021-04-26,Hassan,1.0,Satisfactory,86,PM10
2021-04-27,Hassan,1.0,Satisfactory,93,PM10
2021-04-28,Hassan,1.0,Satisfactory,98,PM10
2021-04-29,Hassan,1.0,Moderate,103,PM10
2021-04-30,Hassan,1.0,Satisfactory,81,PM10
2021-05-01,Hassan,1.0,Satisfactory,95,PM10
2021-05-02,Hassan,1.0,Satisfactory,96,PM10
2021-05-03,Hassan,1.0,Satisfactory,73,PM10
2021-05-04,Hassan,1.0,Satisfactory,87,PM10
2021-05-05,Hassan,1.0,Satisfactory,86,PM10
2021-05-06,Hassan,1.0,Satisfactory,80,CO
2021-05-07,Hassan,1.0,Satisfactory,74,PM10
2021-05-08,Hassan,1.0,Satisfactory,69,PM10
2021-05-09,Hassan,1.0,Satisfactory,74,PM10
2021-05-12,Hassan,1.0,Satisfactory,52,PM10
2021-05-13,Hassan,1.0,Good,47,PM10
2021-05-14,Hassan,1.0,Good,25,O3
2021-05-15,Hassan,1.0,Good,40,CO
2021-05-16,Hassan,1.0,Good,29,O3
2021-05-17,Hassan,1.0,Good,38,PM2.5
2021-05-20,Hassan,1.0,Satisfactory,55,PM10
2021-05-21,Hassan,1.0,Satisfactory,56,PM10
2021-05-22,Hassan,1.0,Good,42,PM10
2021-05-23,Hassan,1.0,Good,37,PM10
2021-05-24,Hassan,1.0,Satisfactory,71,PM10
2021-05-25,Hassan,1.0,Satisfactory,65,PM10
2021-05-26,Hassan,1.0,Good,32,PM2.5
2021-05-27,Hassan,1.0,Good,36,PM2.5
2021-05-28,Hassan,1.0,Good,29,PM2.5
2021-05-29,Hassan,1.0,Satisfactory,58,PM10
2021-05-30,Hassan,1.0,Good,43,PM10
2021-05-31,Hassan,1.0,Good,48,PM10
2021-06-03,Hassan,1.0,Good,38,PM10
2021-06-04,Hassan,1.0,Good,36,PM10
2021-06-05,Hassan,1.0,Good,35,PM10
2021-06-06,Hassan,1.0,Good,26,PM10
2021-06-07,Hassan,1.0,Satisfactory,55,PM10
2021-06-08,Hassan,1.0,Satisfactory,67,PM10
2021-06-09,Hassan,1.0,Satisfactory,71,PM10
2021-06-10,Hassan,1.0,Good,50,PM10
2021-06-11,Hassan,1.0,Satisfactory,65,PM10
2021-06-12,Hassan,1.0,Good,39,PM10
2021-06-13,Hassan,1.0,Good,27,PM10
2021-06-14,Hassan,1.0,Good,32,PM10
2021-06-15,Hassan,1.0,Good,45,PM10
2021-06-16,Hassan,1.0,Satisfactory,57,PM10
2021-06-17,Hassan,1.0,Satisfactory,53,PM10
2021-06-18,Hassan,1.0,Satisfactory,72,PM10
2021-06-19,Hassan,1.0,Satisfactory,67,PM10
2021-06-20,Hassan,1.0,Satisfactory,66,PM10
2021-06-21,Hassan,1.0,Satisfactory,88,PM10
2021-06-22,Hassan,1.0,Moderate,108,PM10
2021-06-23,Hassan,1.0,Moderate,113,PM10
2021-06-24,Hassan,1.0,Moderate,119,PM10
2021-06-25,Hassan,1.0,Moderate,130,PM10
2021-06-26,Hassan,1.0,Satisfactory,90,PM10
2021-06-27,Hassan,1.0,Good,37,PM10
2021-06-28,Hassan,1.0,Satisfactory,75,PM10
2021-06-29,Hassan,1.0,Satisfactory,83,PM10
2021-06-30,Hassan,1.0,Satisfactory,87,PM10
2021-07-01,Hassan,1.0,Satisfactory,80,PM10
2021-07-02,Hassan,1.0,Satisfactory,56,PM10
2021-07-03,Hassan,1.0,Satisfactory,70,PM10
2021-07-04,Hassan,1.0,Satisfactory,54,PM10
2021-07-05,Hassan,1.0,Good,44,PM10
2021-07-06,Hassan,1.0,Good,48,PM10
2021-07-07,Hassan,1.0,Satisfactory,76,PM10
2021-07-08,Hassan,1.0,Satisfactory,60,PM10
2021-07-09,Hassan,1.0,Good,46,PM10
2021-07-10,Hassan,1.0,Good,31,PM10
2021-07-11,Hassan,1.0,Good,41,PM10
2021-07-12,Hassan,1.0,Satisfactory,55,PM10
2021-07-13,Hassan,1.0,Good,39,PM10
2021-07-14,Hassan,1.0,Good,36,CO
2021-07-15,Hassan,1.0,Good,32,NO2
2021-07-16,Hassan,1.0,Good,41,CO
2021-07-17,Hassan,1.0,Good,46,PM10
2021-07-18,Hassan,1.0,Good,35,PM10
2021-07-19,Hassan,1.0,Satisfactory,57,PM10
2021-07-20,Hassan,1.0,Good,50,PM10
2021-07-21,Hassan,1.0,Good,29,SO2
2021-07-22,Hassan,1.0,Good,34,SO2
2021-07-23,Hassan,1.0,Good,35,NO2
2021-07-24,Hassan,1.0,Good,37,PM10
2021-07-25,Hassan,1.0,Good,40,PM10
2021-07-26,Hassan,1.0,Good,46,PM10
2021-07-27,Hassan,1.0,Good,28,NO2
2021-07-28,Hassan,1.0,Good,48,PM10
2021-07-29,Hassan,1.0,Satisfactory,63,PM10
2021-07-30,Hassan,1.0,Satisfactory,54,PM10
2021-07-31,Hassan,1.0,Satisfactory,83,PM10
2021-08-01,Hassan,1.0,Satisfactory,58,PM10
2021-08-02,Hassan,1.0,Satisfactory,56,PM10
2021-08-03,Hassan,1.0,Satisfactory,62,PM10
2021-08-04,Hassan,1.0,Good,38,PM10
2021-08-05,Hassan,1.0,Good,43,PM10
2021-08-06,Hassan,1.0,Good,50,PM10
2021-08-07,Hassan,1.0,Good,39,PM10
2021-08-08,Hassan,1.0,Good,49,PM10
2021-08-09,Hassan,1.0,Satisfactory,73,PM10
2021-08-10,Hassan,1.0,Satisfactory,65,PM10
2021-08-11,Hassan,1.0,Satisfactory,72,PM10
2021-08-12,Hassan,1.0,Satisfactory,67,PM10
2021-08-13,Hassan,1.0,Satisfactory,59,PM10
2021-08-14,Hassan,1.0,Satisfactory,86,PM10
2021-08-15,Hassan,1.0,Satisfactory,51,PM10
2021-08-17,Hassan,1.0,Satisfactory,72,PM10
2021-08-18,Hassan,1.0,Satisfactory,65,PM10
2021-08-19,Hassan,1.0,Satisfactory,69,PM10
2021-08-20,Hassan,1.0,Satisfactory,81,PM10
2021-08-21,Hassan,1.0,Satisfactory,76,PM10
2021-08-22,Hassan,1.0,Good,47,PM10
2021-08-23,Hassan,1.0,Satisfactory,68,PM10
2021-08-24,Hassan,1.0,Satisfactory,63,PM10
2021-08-25,Hassan,1.0,Satisfactory,75,PM10
2021-08-26,Hassan,1.0,Satisfactory,76,PM10
2021-08-27,Hassan,1.0,Satisfactory,70,PM10
2021-08-28,Hassan,1.0,Good,50,PM10
2021-08-29,Hassan,1.0,Good,31,NO2
2021-08-30,Hassan,1.0,Satisfactory,60,PM10
2021-08-31,Hassan,1.0,Satisfactory,74,PM10
2021-09-01,Hassan,1.0,Satisfactory,77,PM10
2021-09-02,Hassan,1.0,Satisfactory,53,PM10
2021-09-03,Hassan,1.0,Good,47,PM10
2021-09-04,Hassan,1.0,Good,41,CO
2021-09-05,Hassan,1.0,Satisfactory,52,PM10
2021-09-06,Hassan,1.0,Good,45,PM10
2021-09-07,Hassan,1.0,Good,39,PM10
2021-09-08,Hassan,1.0,Good,34,SO2
2021-09-09,Hassan,1.0,Good,48,PM10
2021-09-10,Hassan,1.0,Satisfactory,90,PM10
2021-09-11,Hassan,1.0,Satisfactory,57,PM10
2021-09-12,Hassan,1.0,Good,29,PM10
2021-09-13,Hassan,1.0,Good,40,PM10
2021-09-14,Hassan,1.0,Satisfactory,53,PM10
2021-09-15,Hassan,1.0,Satisfactory,67,PM10
2021-09-23,Hassan,1.0,Satisfactory,57,PM10
2021-09-25,Hassan,1.0,Satisfactory,65,PM10
2021-09-26,Hassan,1.0,Satisfactory,71,PM10
2021-09-28,Hassan,1.0,Good,30,PM10
2021-09-29,Hassan,1.0,Good,49,PM10
2021-09-30,Hassan,1.0,Satisfactory,55,PM10
2021-10-02,Hassan,1.0,Good,28,SO2
2021-10-04,Hassan,1.0,Good,33,PM2.5
2021-10-05,Hassan,1.0,Good,36,PM10
2021-10-06,Hassan,1.0,Good,40,PM2.5
2021-10-07,Hassan,1.0,Good,39,PM10
2021-10-08,Hassan,1.0,Satisfactory,62,PM10
2021-10-09,Hassan,1.0,Satisfactory,51,PM10
2021-10-10,Hassan,1.0,Good,49,PM10
2021-10-11,Hassan,1.0,Good,35,PM10
2021-10-12,Hassan,1.0,Good,43,PM10
2021-10-13,Hassan,1.0,Good,30,NO2
2021-10-14,Hassan,1.0,Good,50,PM10
2021-10-15,Hassan,1.0,Good,35,PM10
2021-10-16,Hassan,1.0,Satisfactory,67,PM2.5
2021-10-17,Hassan,1.0,Satisfactory,59,PM2.5
2021-10-18,Hassan,1.0,Satisfactory,60,PM10
2021-10-19,Hassan,1.0,Satisfactory,69,PM10
2021-10-20,Hassan,1.0,Satisfactory,62,PM10
2021-10-22,Hassan,1.0,Good,37,PM2.5
2021-10-23,Hassan,1.0,Satisfactory,56,PM10
2021-10-24,Hassan,1.0,Good,23,NO2
2021-10-25,Hassan,1.0,Good,37,PM2.5
2021-10-26,Hassan,1.0,Satisfactory,75,PM2.5
2021-10-31,Hassan,1.0,Good,22,SO2
2021-11-01,Hassan,1.0,Good,20,O3
2021-11-03,Hassan,1.0,Good,20,SO2
2021-11-06,Hassan,1.0,Good,25,PM10
2021-11-07,Hassan,1.0,Good,33,PM2.5
2021-11-08,Hassan,1.0,Satisfactory,68,PM2.5
2021-11-09,Hassan,1.0,Satisfactory,100,PM2.5
2021-11-10,Hassan,1.0,Satisfactory,94,PM2.5
2021-11-11,Hassan,1.0,Satisfactory,94,PM2.5
2021-11-12,Hassan,1.0,Satisfactory,87,PM2.5
2021-11-15,Hassan,1.0,Good,34,NO2
2021-11-16,Hassan,1.0,Good,25,SO2
2021-11-17,Hassan,1.0,Good,35,NO2
2021-11-18,Hassan,1.0,Good,24,NO2
2021-11-21,Hassan,1.0,Good,49,PM10
2021-11-22,Hassan,1.0,Good,24,NO2
2021-11-23,Hassan,1.0,Good,19,SO2
2021-11-24,Hassan,1.0,Good,31,PM10
2021-11-27,Hassan,1.0,Satisfactory,53,PM2.5
2021-11-28,Hassan,1.0,Satisfactory,69,PM2.5
2021-12-03,Hassan,1.0,Satisfactory,91,O3
2021-12-08,Hassan,1.0,Satisfactory,54,PM2.5
2021-12-09,Hassan,1.0,Satisfactory,55,PM10
2021-12-11,Hassan,1.0,Good,42,PM2.5
2021-12-12,Hassan,1.0,Good,27,O3
2021-12-13,Hassan,1.0,Good,30,PM10
2021-12-15,Hassan,1.0,Good,48,PM2.5
2021-12-16,Hassan,1.0,Satisfactory,74,PM2.5
2021-12-17,Hassan,1.0,Satisfactory,97,PM2.5
2021-12-18,Hassan,1.0,Moderate,113,PM2.5
2021-12-19,Hassan,1.0,Moderate,114,PM2.5
2021-12-20,Hassan,1.0,Satisfactory,72,PM2.5
2021-12-21,Hassan,1.0,Satisfactory,98,PM2.5
2021-12-22,Hassan,1.0,Satisfactory,99,PM10
2021-12-23,Hassan,1.0,Satisfactory,98,PM10
2021-12-24,Hassan,1.0,Moderate,125,PM2.5
2021-12-25,Hassan,1.0,Satisfactory,97,PM2.5
2021-12-26,Hassan,1.0,Satisfactory,84,PM10
2021-12-27,Hassan,1.0,Satisfactory,77,PM2.5
2021-12-28,Hassan,1.0,Satisfactory,57,PM10
2021-12-29,Hassan,1.0,Satisfactory,65,PM10
2021-12-30,Hassan,1.0,Satisfactory,54,PM10
2022-01-01,Hassan,1.0,Good,40,PM10
2022-01-02,Hassan,1.0,Good,37,PM10
2022-01-03,Hassan,1.0,Good,38,PM10
2022-01-04,Hassan,1.0,Satisfactory,61,PM10
2022-01-05,Hassan,1.0,Satisfactory,74,PM10
2022-01-06,Hassan,1.0,Satisfactory,93,PM10
2022-01-07,Hassan,1.0,Moderate,104,PM10
2022-01-08,Hassan,1.0,Satisfactory,95,PM10
2022-01-11,Hassan,1.0,Satisfactory,84,PM10
2022-01-12,Hassan,1.0,Satisfactory,83,PM10
2022-01-13,Hassan,1.0,Satisfactory,99,PM10
2022-01-14,Hassan,1.0,Satisfactory,82,PM10
2022-01-15,Hassan,1.0,Satisfactory,53,PM10
2022-01-16,Hassan,1.0,Good,39,PM10
2022-01-17,Hassan,1.0,Good,47,PM10
2022-01-18,Hassan,1.0,Good,41,PM10
2022-01-19,Hassan,1.0,Good,49,PM10
2022-01-20,Hassan,1.0,Satisfactory,74,PM10
2022-01-21,Hassan,1.0,Satisfactory,94,PM10
2022-01-22,Hassan,1.0,Satisfactory,89,PM10
2022-01-24,Hassan,1.0,Satisfactory,71,PM10
2022-01-27,Hassan,1.0,Moderate,109,PM10
2022-01-28,Hassan,1.0,Satisfactory,65,PM10
2022-01-29,Hassan,1.0,Satisfactory,87,PM10
2022-01-30,Hassan,1.0,Satisfactory,80,PM10
2022-01-31,Hassan,1.0,Satisfactory,77,PM10
2022-02-01,Hassan,1.0,Satisfactory,88,PM10
2022-02-04,Hassan,1.0,Satisfactory,96,PM10
2022-02-05,Hassan,1.0,Satisfactory,88,PM10
2022-02-06,Hassan,1.0,Satisfactory,90,PM10
2022-02-07,Hassan,1.0,Satisfactory,77,PM10
2022-02-08,Hassan,1.0,Satisfactory,95,PM10
2022-02-09,Hassan,1.0,Satisfactory,100,PM10
2022-02-10,Hassan,1.0,Satisfactory,98,PM10
2022-02-11,Hassan,1.0,Satisfactory,71,PM10
2022-02-12,Hassan,1.0,Satisfactory,67,PM10
2022-02-13,Hassan,1.0,Satisfactory,69,PM10
2022-02-14,Hassan,1.0,Satisfactory,75,PM10
2022-02-15,Hassan,1.0,Moderate,103,PM10
2022-02-16,Hassan,1.0,Moderate,102,PM10
2022-02-17,Hassan,1.0,Moderate,110,PM2.5
2022-02-18,Hassan,1.0,Satisfactory,100,PM10
2022-02-19,Hassan,1.0,Satisfactory,89,PM10
2022-02-20,Hassan,1.0,Satisfactory,72,PM10
2022-02-21,Hassan,1.0,Satisfactory,84,PM10
2022-02-22,Hassan,1.0,Satisfactory,100,PM10
2022-02-23,Hassan,1.0,Satisfactory,96,PM10
2022-02-24,Hassan,1.0,Satisfactory,70,PM10
2022-02-25,Hassan,1.0,Satisfactory,77,PM10
2022-02-26,Hassan,1.0,Satisfactory,73,PM10
2022-02-27,Hassan,1.0,Satisfactory,76,PM10
2022-02-28,Hassan,1.0,Satisfactory,57,PM10
2022-03-02,Hassan,1.0,Satisfactory,70,PM10
2022-03-03,Hassan,1.0,Satisfactory,60,PM10
2022-03-04,Hassan,1.0,Satisfactory,72,PM10
2022-03-05,Hassan,1.0,Satisfactory,72,PM10
2022-03-06,Hassan,1.0,Satisfactory,65,PM10
2022-03-07,Hassan,1.0,Satisfactory,53,PM10
2022-03-08,Hassan,1.0,Satisfactory,54,PM10
2022-03-09,Hassan,1.0,Satisfactory,74,PM10
2022-03-10,Hassan,1.0,Satisfactory,91,PM10
2022-03-11,Hassan,1.0,Satisfactory,99,PM10
2022-03-12,Hassan,1.0,Moderate,102,PM10
2022-03-14,Hassan,1.0,Moderate,110,PM2.5
2022-03-15,Hassan,1.0,Moderate,121,PM10
2022-03-16,Hassan,1.0,Moderate,115,PM10
2022-03-17,Hassan,1.0,Moderate,124,PM10
2022-03-18,Hassan,1.0,Moderate,114,PM10
2022-03-19,Hassan,1.0,Moderate,109,PM10
2022-03-20,Hassan,1.0,Satisfactory,67,PM2.5
2022-03-21,Hassan,1.0,Satisfactory,68,PM2.5
2022-03-22,Hassan,1.0,Satisfactory,68,PM2.5
2022-03-23,Hassan,1.0,Satisfactory,93,PM10
2022-03-24,Hassan,1.0,Satisfactory,97,PM10
2022-03-25,Hassan,1.0,Satisfactory,90,PM10
2022-03-26,Hassan,1.0,Satisfactory,99,PM10
2022-03-27,Hassan,1.0,Satisfactory,95,PM10
2022-03-28,Hassan,1.0,Satisfactory,94,PM10
2022-03-29,Hassan,1.0,Moderate,107,PM10
2022-03-30,Hassan,1.0,Moderate,117,PM10
2022-03-31,Hassan,1.0,Moderate,103,PM10
2022-04-01,Hassan,1.0,Moderate,111,PM10
2022-04-02,Hassan,1.0,Satisfactory,100,PM10
2022-04-03,Hassan,1.0,Satisfactory,78,PM10
2022-04-04,Hassan,1.0,Satisfactory,84,PM10
2022-04-05,Hassan,1.0,Moderate,109,PM10
2022-04-08,Hassan,1.0,Moderate,106,PM10
2022-04-09,Hassan,1.0,Moderate,157,CO
2022-04-10,Hassan,1.0,Satisfactory,80,PM10
2022-04-11,Hassan,1.0,Satisfactory,78,PM10
2022-04-12,Hassan,1.0,Satisfactory,97,CO
2022-04-14,Hassan,1.0,Good,48,NO2
2022-04-15,Hassan,1.0,Satisfactory,52,NO2
2022-04-16,Hassan,1.0,Good,46,PM2.5
2022-04-17,Hassan,1.0,Satisfactory,53,PM2.5
2022-04-18,Hassan,1.0,Good,44,NO2
2022-04-19,Hassan,1.0,Good,49,NO2
2022-04-21,Hassan,1.0,Satisfactory,64,PM2.5
2022-04-22,Hassan,1.0,Satisfactory,94,PM10
2022-04-23,Hassan,1.0,Satisfactory,92,PM10
2022-04-24,Hassan,1.0,Satisfactory,72,PM10
2022-04-25,Hassan,1.0,Satisfactory,93,PM10
2022-04-26,Hassan,1.0,Satisfactory,73,PM10
2022-04-29,Hassan,1.0,Satisfactory,89,PM10
2022-05-01,Hassan,1.0,Satisfactory,83,PM10
2022-05-02,Hassan,1.0,Satisfactory,66,PM10
2022-05-03,Hassan,1.0,Satisfactory,69,PM10
2022-05-04,Hassan,1.0,Satisfactory,56,PM10
2022-05-06,Hassan,1.0,Satisfactory,73,PM10
2022-05-07,Hassan,1.0,Satisfactory,66,PM10
2022-05-08,Hassan,1.0,Moderate,113,PM10
2022-05-09,Hassan,1.0,Satisfactory,86,PM10
2022-05-10,Hassan,1.0,Moderate,111,PM10
2022-05-11,Hassan,1.0,Satisfactory,83,PM10
2022-05-12,Hassan,1.0,Satisfactory,54,PM10
2022-05-13,Hassan,1.0,Satisfactory,76,PM10
2022-05-14,Hassan,1.0,Satisfactory,93,PM10
2022-05-15,Hassan,1.0,Moderate,115,PM10
2022-05-16,Hassan,1.0,Satisfactory,91,PM10
2022-05-17,Hassan,1.0,Good,40,PM10
2022-05-18,Hassan,1.0,Good,35,O3
2022-05-19,Hassan,1.0,Good,36,NO2
2022-05-20,Hassan,1.0,Satisfactory,78,PM10
2022-05-21,Hassan,1.0,Satisfactory,85,PM10
2022-05-22,Hassan,1.0,Satisfactory,89,PM10
2022-05-23,Hassan,1.0,Satisfactory,58,PM10
2022-05-24,Hassan,1.0,Satisfactory,82,PM10
2022-05-25,Hassan,1.0,Satisfactory,66,PM10
2022-05-26,Hassan,1.0,Satisfactory,82,PM10
2022-05-27,Hassan,1.0,Satisfactory,93,PM10
2022-05-28,Hassan,1.0,Moderate,105,PM10
2022-05-29,Hassan,1.0,Satisfactory,73,PM10
2022-05-30,Hassan,1.0,Satisfactory,69,PM10
2022-05-31,Hassan,1.0,Satisfactory,60,PM10
2022-06-01,Hassan,1.0,Satisfactory,66,PM10
2022-06-02,Hassan,1.0,Satisfactory,66,PM10
2022-06-04,Hassan,1.0,Good,38,PM10
2022-06-06,Hassan,1.0,Satisfactory,55,PM10
2022-06-07,Hassan,1.0,Satisfactory,55,PM10
2022-06-08,Hassan,1.0,Satisfactory,57,PM10
2022-06-09,Hassan,1.0,Good,38,NO2
2022-06-10,Hassan,1.0,Good,42,PM10
2022-06-11,Hassan,1.0,Good,42,PM10
2022-06-12,Hassan,1.0,Good,36,PM10
2022-06-13,Hassan,1.0,Good,36,NO2
2022-06-14,Hassan,1.0,Good,43,PM10
2022-06-15,Hassan,1.0,Good,48,PM10
2022-06-17,Hassan,1.0,Good,33,PM10
2022-06-21,Hassan,1.0,Good,43,PM10
2022-06-29,Hassan,1.0,Good,35,NO2
2022-06-30,Hassan,1.0,Good,33,NO2
2022-07-01,Hassan,1.0,Good,31,NO2
2022-07-02,Hassan,1.0,Good,30,SO2
2022-07-03,Hassan,1.0,Good,29,NO2
2022-07-04,Hassan,1.0,Good,32,CO
2022-07-05,Hassan,1.0,Good,33,NO2
2022-07-06,Hassan,1.0,Good,46,CO
2022-07-07,Hassan,1.0,Good,42,CO
2022-07-09,Hassan,1.0,Good,33,NO2
2022-07-10,Hassan,1.0,Good,34,NO2
2022-07-11,Hassan,1.0,Good,34,NO2
2022-07-12,Hassan,1.0,Good,32,SO2
2022-07-13,Hassan,1.0,Good,30,SO2
2022-07-14,Hassan,1.0,Good,32,SO2
2022-07-15,Hassan,1.0,Good,38,SO2
2022-07-16,Hassan,1.0,Good,35,SO2
2022-07-17,Hassan,1.0,Good,36,SO2
2022-07-18,Hassan,1.0,Good,34,SO2
2022-07-19,Hassan,1.0,Good,40,SO2
2022-07-20,Hassan,1.0,Good,46,SO2
2022-07-21,Hassan,1.0,Good,39,SO2
2022-07-22,Hassan,1.0,Good,45,SO2
2022-07-23,Hassan,1.0,Good,47,SO2
2022-07-24,Hassan,1.0,Good,50,SO2
2022-07-25,Hassan,1.0,Good,44,SO2
2022-07-26,Hassan,1.0,Good,49,SO2
2022-07-27,Hassan,1.0,Satisfactory,51,SO2
2022-07-28,Hassan,1.0,Satisfactory,52,SO2
2022-07-29,Hassan,1.0,Satisfactory,55,SO2
2022-07-30,Hassan,1.0,Satisfactory,54,SO2
2022-08-02,Hassan,1.0,Satisfactory,64,SO2
2022-08-03,Hassan,1.0,Satisfactory,61,SO2
2022-08-04,Hassan,1.0,Satisfactory,62,SO2
2022-08-05,Hassan,1.0,Satisfactory,54,SO2
2022-08-06,Hassan,1.0,Satisfactory,52,SO2
2022-08-07,Hassan,1.0,Satisfactory,54,SO2
2022-08-08,Hassan,1.0,Satisfactory,55,SO2
2022-08-09,Hassan,1.0,Satisfactory,51,SO2
2022-08-10,Hassan,1.0,Good,49,SO2
2022-08-11,Hassan,1.0,Satisfactory,55,SO2
2022-08-12,Hassan,1.0,Satisfactory,56,SO2
2022-08-13,Hassan,1.0,Satisfactory,58,SO2
2022-08-14,Hassan,1.0,Satisfactory,57,SO2
2022-08-15,Hassan,1.0,Satisfactory,58,SO2
2022-08-16,Hassan,1.0,Satisfactory,54,SO2
2022-08-17,Hassan,1.0,Satisfactory,62,SO2
2022-08-18,Hassan,1.0,Satisfactory,61,SO2
2022-08-24,Hassan,1.0,Good,27,NO2
2022-08-25,Hassan,1.0,Good,29,NO2
2022-08-26,Hassan,1.0,Good,25,NO2
2022-08-27,Hassan,1.0,Good,26,PM2.5
2022-08-28,Hassan,1.0,Good,22,PM2.5
2022-08-29,Hassan,1.0,Good,21,SO2
2022-08-30,Hassan,1.0,Good,25,PM2.5
2022-08-31,Hassan,1.0,Good,35,PM2.5
2022-09-01,Hassan,1.0,Good,24,NO2
2022-09-02,Hassan,1.0,Good,35,NO2
2022-09-03,Hassan,1.0,Good,30,NO2
2022-09-04,Hassan,1.0,Good,25,NO2
2022-09-05,Hassan,1.0,Good,25,NO2
2022-09-06,Hassan,1.0,Good,29,NO2
2022-09-07,Hassan,1.0,Good,34,NO2
2022-09-08,Hassan,1.0,Good,29,NO2
2022-09-09,Hassan,1.0,Good,26,NO2
2022-09-10,Hassan,1.0,Good,28,NO2
2022-09-11,Hassan,1.0,Good,20,SO2
2022-09-12,Hassan,1.0,Good,32,SO2
2022-09-13,Hassan,1.0,Good,25,NO2
2022-09-14,Hassan,1.0,Good,25,NO2
2022-09-15,Hassan,1.0,Good,29,NO2
2022-09-16,Hassan,1.0,Good,33,PM2.5
2022-09-17,Hassan,1.0,Good,30,PM2.5
2022-09-18,Hassan,1.0,Good,32,PM2.5
2022-09-19,Hassan,1.0,Good,32,PM2.5
2022-09-20,Hassan,1.0,Good,28,NO2
2022-09-21,Hassan,1.0,Good,32,PM2.5
2022-09-22,Hassan,1.0,Good,38,PM2.5
2022-09-23,Hassan,1.0,Good,40,PM2.5
2022-09-24,Hassan,1.0,Good,31,NO2
2022-09-25,Hassan,1.0,Good,24,PM2.5
2022-09-26,Hassan,1.0,Good,23,PM2.5
2022-09-27,Hassan,1.0,Good,24,NO2
2022-09-28,Hassan,1.0,Good,30,NO2
2022-09-29,Hassan,1.0,Good,28,NO2
2022-09-30,Hassan,1.0,Good,34,NO2
2022-10-01,Hassan,1.0,Good,41,NO2
2022-10-02,Hassan,1.0,Good,33,NO2
2022-10-03,Hassan,1.0,Good,32,NO2
2022-10-04,Hassan,1.0,Good,35,PM2.5
2022-10-05,Hassan,1.0,Good,38,PM2.5
2022-10-06,Hassan,1.0,Good,43,NO2
2022-10-07,Hassan,1.0,Good,41,NO2
2022-10-08,Hassan,1.0,Good,32,NO2
2022-10-09,Hassan,1.0,Good,33,SO2
2022-10-10,Hassan,1.0,Good,32,NO2
2022-10-11,Hassan,1.0,Good,32,NO2
2022-10-12,Hassan,1.0,Good,43,PM2.5
2022-10-13,Hassan,1.0,Good,34,PM2.5
2022-10-15,Hassan,1.0,Good,25,O3
2022-10-16,Hassan,1.0,Good,28,NO2
2022-10-17,Hassan,1.0,Good,28,NO2
2022-10-18,Hassan,1.0,Good,39,NO2
2022-10-19,Hassan,1.0,Good,30,NO2
2022-10-20,Hassan,1.0,Good,34,NO2
2022-10-21,Hassan,1.0,Good,30,NO2
2022-10-22,Hassan,1.0,Good,39,O3
2022-10-23,Hassan,1.0,Satisfactory,58,PM2.5
2022-10-24,Hassan,1.0,Satisfactory,62,PM2.5
2022-10-25,Hassan,1.0,Satisfactory,70,PM2.5
2022-10-26,Hassan,1.0,Satisfactory,60,PM2.5
2022-10-27,Hassan,1.0,Satisfactory,78,PM2.5
2022-10-28,Hassan,1.0,Satisfactory,60,PM2.5
2022-10-29,Hassan,1.0,Satisfactory,80,PM2.5
2022-11-03,Hassan,1.0,Good,36,PM2.5
2022-11-04,Hassan,1.0,Good,23,PM2.5
2022-11-05,Hassan,1.0,Good,24,PM2.5
2022-11-06,Hassan,1.0,Good,33,PM2.5
2022-11-07,Hassan,1.0,Satisfactory,61,PM2.5
2022-11-08,Hassan,1.0,Satisfactory,71,PM2.5
2022-11-09,Hassan,1.0,Satisfactory,73,PM2.5
2022-11-10,Hassan,1.0,Satisfactory,83,PM2.5
2022-11-11,Hassan,1.0,Satisfactory,75,PM2.5
2022-11-12,Hassan,1.0,Satisfactory,98,PM2.5
2022-11-13,Hassan,1.0,Good,25,PM2.5
2022-11-14,Hassan,1.0,Good,15,PM2.5
2022-11-15,Hassan,1.0,Good,24,PM2.5
2022-11-16,Hassan,1.0,Satisfactory,69,PM2.5
2022-11-17,Hassan,1.0,Satisfactory,94,PM2.5
2022-11-18,Hassan,1.0,Satisfactory,80,PM2.5
2022-11-19,Hassan,1.0,Satisfactory,68,PM2.5
2022-11-20,Hassan,1.0,Satisfactory,98,PM2.5
2022-11-21,Hassan,1.0,Moderate,103,PM2.5
2022-11-22,Hassan,1.0,Satisfactory,79,PM2.5
2022-11-23,Hassan,1.0,Good,33,PM2.5
2022-11-24,Hassan,1.0,Good,24,PM2.5
2022-11-25,Hassan,1.0,Good,41,PM2.5
2022-11-26,Hassan,1.0,Good,48,PM2.5
2022-11-29,Hassan,1.0,Satisfactory,74,PM2.5
2022-11-30,Hassan,1.0,Moderate,130,PM2.5
2022-12-01,Hassan,1.0,Satisfactory,82,PM2.5
2022-12-02,Hassan,1.0,Satisfactory,63,PM2.5
2022-12-03,Hassan,1.0,Good,46,PM2.5
2022-12-04,Hassan,1.0,Good,30,PM2.5
2022-12-05,Hassan,1.0,Moderate,151,CO
2022-12-06,Hassan,1.0,Satisfactory,87,PM2.5
2022-12-07,Hassan,1.0,Moderate,119,PM2.5
2022-12-08,Hassan,1.0,Satisfactory,91,PM2.5
2022-12-09,Hassan,1.0,Satisfactory,86,PM2.5
2022-12-10,Hassan,1.0,Satisfactory,70,PM2.5
2022-12-11,Hassan,1.0,Good,38,PM2.5
2022-12-12,Hassan,1.0,Good,14,NO2
2022-12-13,Hassan,1.0,Good,22,PM2.5
2022-12-14,Hassan,1.0,Good,29,PM2.5
2022-12-15,Hassan,1.0,Good,27,PM2.5
2022-12-16,Hassan,1.0,Good,38,PM2.5
2022-12-17,Hassan,1.0,Good,47,PM2.5
2022-12-18,Hassan,1.0,Satisfactory,76,PM2.5
2022-12-19,Hassan,1.0,Satisfactory,96,PM2.5
2022-12-20,Hassan,1.0,Satisfactory,71,PM2.5
2022-12-21,Hassan,1.0,Satisfactory,54,PM2.5
2022-12-22,Hassan,1.0,Good,35,PM2.5
2022-12-23,Hassan,1.0,Satisfactory,61,PM2.5
2022-12-27,Hassan,1.0,Good,20,PM2.5
2022-12-30,Hassan,1.0,Good,38,PM2.5
2022-12-31,Hassan,1.0,Good,48,PM2.5
2023-01-01,Hassan,1.0,Satisfactory,77,PM2.5
2023-01-02,Hassan,1.0,Satisfactory,63,PM2.5
2023-01-03,Hassan,1.0,Satisfactory,68,PM10
2023-01-05,Hassan,1.0,Satisfactory,59,PM10
2023-01-06,Hassan,1.0,Satisfactory,63,PM10
2023-01-07,Hassan,1.0,Satisfactory,67,PM10
2023-01-08,Hassan,1.0,Satisfactory,82,PM10
2023-01-09,Hassan,1.0,Satisfactory,89,PM10
2023-01-12,Hassan,1.0,Satisfactory,52,PM10
2023-01-13,Hassan,1.0,Satisfactory,82,PM10
2023-01-14,Hassan,1.0,Moderate,122,PM10
2023-01-15,Hassan,1.0,Satisfactory,100,PM10
2023-01-16,Hassan,1.0,Satisfactory,75,PM10
2023-01-17,Hassan,1.0,Satisfactory,64,PM10
2023-01-18,Hassan,1.0,Satisfactory,67,PM10
2023-01-19,Hassan,1.0,Satisfactory,54,PM10
2023-01-20,Hassan,1.0,Satisfactory,55,PM10
2023-01-25,Hassan,1.0,Satisfactory,80,PM10
2023-01-26,Hassan,1.0,Satisfactory,75,PM10
2023-01-27,Hassan,1.0,Satisfactory,74,PM10
2023-01-28,Hassan,1.0,Satisfactory,69,PM10
2023-01-29,Hassan,1.0,Satisfactory,86,PM10
2023-01-30,Hassan,1.0,Satisfactory,78,PM10
2023-01-31,Hassan,1.0,Satisfactory,76,PM10
2023-02-01,Hassan,1.0,Satisfactory,60,PM10
2023-02-02,Hassan,1.0,Satisfactory,96,PM10
2023-02-03,Hassan,1.0,Satisfactory,76,PM10
2023-02-04,Hassan,1.0,Satisfactory,62,PM10
2023-02-05,Hassan,1.0,Satisfactory,80,PM2.5
2023-02-06,Hassan,1.0,Satisfactory,71,PM10
2023-02-07,Hassan,1.0,Satisfactory,98,PM10
2023-02-08,Hassan,1.0,Satisfactory,97,PM10
2023-02-09,Hassan,1.0,Moderate,106,PM10
2023-02-10,Hassan,1.0,Satisfactory,94,PM10
2023-02-11,Hassan,1.0,Satisfactory,83,PM10
2023-02-12,Hassan,1.0,Satisfactory,74,PM10
2023-02-13,Hassan,1.0,Satisfactory,78,PM10
2023-02-14,Hassan,1.0,Satisfactory,76,PM10
2023-02-15,Hassan,1.0,Satisfactory,87,PM10
2023-02-16,Hassan,1.0,Satisfactory,82,PM10
2023-02-17,Hassan,1.0,Satisfactory,82,PM10
2023-02-22,Hassan,1.0,Satisfactory,83,PM10
2023-02-23,Hassan,1.0,Satisfactory,94,PM10
2023-02-24,Hassan,1.0,Satisfactory,61,PM10
2023-02-25,Hassan,1.0,Satisfactory,77,PM10
2023-02-26,Hassan,1.0,Satisfactory,80,PM10
2023-02-27,Hassan,1.0,Moderate,107,PM2.5
2023-02-28,Hassan,1.0,Satisfactory,70,PM10
2023-03-01,Hassan,1.0,Satisfactory,69,PM10
2023-03-02,Hassan,1.0,Satisfactory,80,PM10
2023-03-03,Hassan,1.0,Satisfactory,88,PM10